This is the latest recevied weather packets stored in our database for station/object JO1YDG-13. If no packets are shown the sender has not sent any weather packets the latest 10 day(s).
| Time | Temp. | Humidity | Pressure | Rain* | Wind** | Luminosity | Snow |
|---|---|---|---|---|---|---|---|
| 1777778069 | 23.33° C | 44% | 980.9 hPa | 0 mm | - | - | - |
| 1777777769 | 22.78° C | 44% | 980.9 hPa | 0 mm | - | - | - |
| 1777777469 | 22.78° C | 46% | 980.9 hPa | 0 mm | - | - | - |
| 1777777168 | 22.22° C | 47% | 981.2 hPa | 0 mm | - | - | - |
| 1777776868 | 22.78° C | 46% | 981.2 hPa | 0 mm | - | - | - |
| 1777776568 | 22.78° C | 46% | 981.5 hPa | 0 mm | - | - | - |
| 1777776268 | 22.78° C | 45% | 981.5 hPa | 0 mm | - | - | - |
| 1777775968 | 23.33° C | 45% | 981.7 hPa | 0 mm | - | - | - |
| 1777775668 | 22.78° C | 45% | 981.8 hPa | 0 mm | - | - | - |
| 1777775367 | 22.22° C | 47% | 981.8 hPa | 0 mm | - | - | - |
| 1777775069 | 22.22° C | 47% | 982.1 hPa | 0 mm | - | - | - |
| 1777774769 | 21.67° C | 47% | 982.1 hPa | 0 mm | - | - | - |
| 1777774469 | 21.67° C | 47% | 982.5 hPa | 0 mm | - | - | - |
| 1777774169 | 21.11° C | 49% | 982.5 hPa | 0 mm | - | - | - |
| 1777773868 | 21.67° C | 48% | 982.5 hPa | 0 mm | - | - | - |
| 1777773568 | 22.22° C | 47% | 982.7 hPa | 0 mm | - | - | - |
| 1777773268 | 21.67° C | 46% | 982.7 hPa | 0 mm | - | - | - |
| 1777772968 | 21.11° C | 48% | 982.9 hPa | 0 mm | - | - | - |
| 1777772668 | 21.11° C | 48% | 982.9 hPa | 0 mm | - | - | - |
| 1777772368 | 21.67° C | 47% | 983.1 hPa | 0 mm | - | - | - |
| 1777772067 | 21.11° C | 49% | 983.2 hPa | 0 mm | - | - | - |
| 1777771767 | 21.11° C | 48% | 983.2 hPa | 0 mm | - | - | - |
| 1777771469 | 20.56° C | 50% | 983.6 hPa | 0 mm | - | - | - |
| 1777771169 | 21.11° C | 53% | 983.6 hPa | 0 mm | - | - | - |
| 1777770869 | 20.56° C | 51% | 983.6 hPa | 0 mm | - | - | - |
* Rain latest hour (hover to see other rain measurements)
** Current wind speed in m/s (hover to see current wind gust speed)